Location: Unspecified
(43.4354°N, 0.0000°E)
Time: 07:05:08
(UTC+00:00)

Tiros 1 despin weight - Pass Details

Date: 28 June 2019
Orbit: 594 x 642 km, 48.2° (Epoch: 17 July)

Event Time Altitude Azimuth Distance (km) Brightness Sun altitude
Rises 22:15:58 0° 264° (W) 2,867 ? -18.9°
Reaches altitude 10° 22:18:20 10° 269° (W) 1,956 ? -19.1°
Maximum altitude 22:22:43 53° 347° (NNW) 739 ? -19.4°
Drops below altitude 10° 22:27:05 10° 65° (ENE) 1,936 ? -19.7°
Sets 22:29:25 0° 70° (ENE) 2,835 ? -19.9°
